CEB714 RPLL-RPUT

Flight info

Callsign CEB714
Flight time 0h 41m
Altitude 21000
Route CAB2V CAB W1 CUY CUY1R
Aircraft A320/M-SDE3FGHIRWY/LB1

Departure

Time 2026-05-05 21:43
Airport Ninoy Aquino International Airport (RPLL)

Arrival

Time 2026-05-05 22:25
Airport Tuguegarao Airport (RPUT)
Time Latitude Longitude Altitude Speed Heading
2026-05-05 21:24 14.50808 121.01242 69 ft 0 kts 330°
2026-05-05 21:31 14.50798 121.01248 59 ft 2 kts 334°
2026-05-05 21:31 14.50783 121.01255 63 ft 2 kts 339°
2026-05-05 21:31 14.50767 121.01260 62 ft 2 kts 347°
2026-05-05 21:32 14.50751 121.01263 60 ft 2 kts 360°
2026-05-05 21:32 14.50735 121.01261 61 ft 2 kts 19°
2026-05-05 21:32 14.50720 121.01253 62 ft 2 kts 40°
2026-05-05 21:32 14.50709 121.01241 63 ft 2 kts 56°
2026-05-05 21:33 14.50705 121.01235 63 ft 0 kts 59°
2026-05-05 21:34 14.50706 121.01237 63 ft 1 kts 59°
2026-05-05 21:35 14.50736 121.01291 61 ft 14 kts 60°
2026-05-05 21:35 14.50791 121.01389 64 ft 18 kts 60°
2026-05-05 21:35 14.50860 121.01515 69 ft 22 kts 60°
2026-05-05 21:35 14.50946 121.01668 66 ft 27 kts 60°
2026-05-05 21:36 14.51044 121.01840 69 ft 25 kts 58°
2026-05-05 21:36 14.51109 121.01939 64 ft 3 kts
2026-05-05 21:36 14.51142 121.01913 64 ft 10 kts 315°
2026-05-05 21:36 14.51194 121.01858 62 ft 11 kts 314°
2026-05-05 21:37 14.51249 121.01801 69 ft 11 kts 314°
2026-05-05 21:37 14.51307 121.01742 61 ft 12 kts 316°
2026-05-05 21:37 14.51367 121.01681 66 ft 12 kts 315°
2026-05-05 21:37 14.51428 121.01619 69 ft 12 kts 315°
2026-05-05 21:38 14.51489 121.01556 69 ft 13 kts 315°
2026-05-05 21:38 14.51553 121.01491 64 ft 13 kts 315°
2026-05-05 21:38 14.51617 121.01425 68 ft 13 kts 314°
2026-05-05 21:38 14.51680 121.01357 69 ft 13 kts 314°
2026-05-05 21:39 14.51745 121.01289 65 ft 13 kts 314°
2026-05-05 21:39 14.51812 121.01221 69 ft 14 kts 316°
2026-05-05 21:39 14.51879 121.01153 62 ft 14 kts 315°
2026-05-05 21:39 14.51947 121.01083 69 ft 14 kts 315°
2026-05-05 21:40 14.52015 121.01013 64 ft 14 kts 315°
2026-05-05 21:40 14.52084 121.00942 66 ft 14 kts 315°
2026-05-05 21:40 14.52153 121.00870 64 ft 14 kts 315°
2026-05-05 21:40 14.52224 121.00797 69 ft 14 kts 315°
2026-05-05 21:41 14.52294 121.00726 68 ft 14 kts 315°
2026-05-05 21:41 14.52365 121.00653 63 ft 14 kts 315°
2026-05-05 21:41 14.52435 121.00580 67 ft 14 kts 315°
2026-05-05 21:41 14.52493 121.00510 68 ft 11 kts 283°
2026-05-05 21:42 14.52450 121.00453 69 ft 10 kts 225°
2026-05-05 21:42 14.52400 121.00400 62 ft 11 kts 224°
2026-05-05 21:42 14.52352 121.00408 64 ft 7 kts 128°
2026-05-05 21:42 14.52314 121.00450 69 ft 9 kts 136°
2026-05-05 21:43 14.52260 121.00504 69 ft 18 kts 135°
2026-05-05 21:43 14.51929 121.00850 62 ft 117 kts 134°
2026-05-05 21:43 14.51188 121.01628 270 ft 175 kts 134°
2026-05-05 21:43 14.50295 121.02557 1213 ft 184 kts 134°
2026-05-05 21:44 14.49377 121.03503 2289 ft 192 kts 133°
2026-05-05 21:44 14.48398 121.04511 3191 ft 203 kts 133°
2026-05-05 21:44 14.47391 121.05549 4121 ft 206 kts 133°
2026-05-05 21:44 14.46385 121.06587 5064 ft 208 kts 133°
2026-05-05 21:45 14.45354 121.07651 5967 ft 212 kts 134°
2026-05-05 21:45 14.44165 121.08582 6808 ft 221 kts 159°
2026-05-05 21:45 14.42646 121.08620 7859 ft 225 kts 197°
2026-05-05 21:45 14.41373 121.07668 8859 ft 233 kts 227°
2026-05-05 21:46 14.40316 121.06363 9787 ft 240 kts 229°
2026-05-05 21:46 14.39254 121.05008 10692 ft 244 kts 230°
2026-05-05 21:46 14.38181 121.03634 11631 ft 247 kts 230°
2026-05-05 21:46 14.37210 121.02158 12558 ft 252 kts 248°
2026-05-05 21:47 14.36958 121.00383 13511 ft 254 kts 278°
2026-05-05 21:47 14.37572 120.98688 14337 ft 256 kts 307°
2026-05-05 21:47 14.38804 120.97342 15134 ft 261 kts 316°
2026-05-05 21:47 14.40111 120.96015 15939 ft 266 kts 316°
2026-05-05 21:48 14.41506 120.94789 16751 ft 269 kts 328°
2026-05-05 21:48 14.43245 120.93945 17426 ft 280 kts 344°
2026-05-05 21:48 14.45154 120.93397 17928 ft 297 kts 345°
2026-05-05 21:48 14.47209 120.92811 18381 ft 315 kts 345°
2026-05-05 21:49 14.49379 120.92189 18769 ft 332 kts 345°
2026-05-05 21:49 14.51664 120.91545 19127 ft 350 kts 347°
2026-05-05 21:49 14.54138 120.91295 19482 ft 366 kts
2026-05-05 21:49 14.56738 120.91484 19794 ft 383 kts
2026-05-05 21:50 14.59443 120.91707 20229 ft 394 kts
2026-05-05 21:50 14.62199 120.91940 20706 ft 399 kts
2026-05-05 21:50 14.64968 120.92175 20856 ft 399 kts
2026-05-05 21:50 14.67704 120.92407 20895 ft 392 kts
2026-05-05 21:51 14.70421 120.92632 20897 ft 392 kts
2026-05-05 21:51 14.73105 120.92848 20896 ft 392 kts
2026-05-05 21:51 14.75825 120.93067 20899 ft 392 kts
2026-05-05 21:51 14.78544 120.93287 20901 ft 392 kts
2026-05-05 21:52 14.83972 120.93731 20907 ft 391 kts
2026-05-05 21:52 14.86689 120.93957 20908 ft 391 kts
2026-05-05 21:52 14.89400 120.94241 20913 ft 391 kts
2026-05-05 21:53 14.92111 120.94596 20917 ft 391 kts
2026-05-05 21:53 14.94812 120.94989 20917 ft 392 kts
2026-05-05 21:53 14.97510 120.95394 20918 ft 392 kts
2026-05-05 21:53 15.00208 120.95797 20922 ft 391 kts
2026-05-05 21:54 15.02871 120.96185 20923 ft 391 kts
2026-05-05 21:54 15.05569 120.96567 20923 ft 391 kts
2026-05-05 21:54 15.08268 120.96938 20923 ft 391 kts
2026-05-05 21:54 15.10969 120.97302 20924 ft 391 kts
2026-05-05 21:55 15.13670 120.97665 20923 ft 391 kts
2026-05-05 21:55 15.16368 120.98030 20922 ft 391 kts
2026-05-05 21:55 15.19080 120.98400 20920 ft 391 kts
2026-05-05 21:55 15.21777 120.98772 20920 ft 391 kts
2026-05-05 21:56 15.24473 120.99147 20924 ft 391 kts
2026-05-05 21:56 15.27169 120.99519 20922 ft 391 kts
2026-05-05 21:56 15.29871 120.99890 20927 ft 391 kts
2026-05-05 21:56 15.32535 121.00254 20929 ft 391 kts
2026-05-05 21:57 15.35238 121.00624 20931 ft 391 kts
2026-05-05 21:57 15.37938 121.00995 20930 ft 391 kts
2026-05-05 21:57 15.40635 121.01367 20927 ft 391 kts
2026-05-05 21:57 15.43333 121.01739 20927 ft 391 kts
2026-05-05 21:58 15.46029 121.02113 20931 ft 391 kts
2026-05-05 21:58 15.48684 121.02751 20927 ft 391 kts 18°
2026-05-05 21:58 15.51117 121.03837 20927 ft 392 kts 25°
2026-05-05 21:58 15.53577 121.05066 20928 ft 392 kts 25°
2026-05-05 21:59 15.56034 121.06289 20930 ft 392 kts 25°
2026-05-05 21:59 15.58491 121.07507 20935 ft 392 kts 25°
2026-05-05 21:59 15.60959 121.08727 20938 ft 392 kts 25°
2026-05-05 21:59 15.63418 121.09945 20935 ft 392 kts 25°
2026-05-05 22:00 15.65883 121.11165 20935 ft 392 kts 25°
2026-05-05 22:00 15.68316 121.12371 20938 ft 392 kts 25°
2026-05-05 22:00 15.70779 121.13595 20943 ft 392 kts 25°
2026-05-05 22:00 15.73242 121.14821 20942 ft 392 kts 25°
2026-05-05 22:01 15.75709 121.16048 20946 ft 393 kts 25°
2026-05-05 22:01 15.78172 121.17274 20952 ft 393 kts 25°
2026-05-05 22:01 15.80642 121.18502 20950 ft 393 kts 25°
2026-05-05 22:01 15.83113 121.19729 20960 ft 393 kts 25°
2026-05-05 22:02 15.85581 121.20957 20963 ft 393 kts 25°
2026-05-05 22:02 15.88049 121.22186 20966 ft 393 kts 25°
2026-05-05 22:02 15.90525 121.23419 20972 ft 394 kts 25°
2026-05-05 22:02 15.92994 121.24648 20982 ft 394 kts 25°
2026-05-05 22:03 15.95429 121.25861 20986 ft 393 kts 25°
2026-05-05 22:03 15.97898 121.27092 20983 ft 394 kts 25°
2026-05-05 22:03 16.00364 121.28320 20987 ft 393 kts 25°
2026-05-05 22:03 16.02830 121.29548 20988 ft 393 kts 25°
2026-05-05 22:04 16.05299 121.30779 20992 ft 393 kts 25°
2026-05-05 22:04 16.07762 121.32007 20994 ft 393 kts 25°
2026-05-05 22:04 16.10227 121.33237 20991 ft 393 kts 25°
2026-05-05 22:04 16.12689 121.34466 20994 ft 393 kts 25°
2026-05-05 22:05 16.15165 121.35700 20994 ft 393 kts 25°
2026-05-05 22:05 16.17628 121.36929 20996 ft 393 kts 25°
2026-05-05 22:05 16.20095 121.38160 20995 ft 393 kts 25°
2026-05-05 22:05 16.22558 121.39390 20992 ft 393 kts 25°
2026-05-05 22:06 16.24990 121.40606 20993 ft 393 kts 25°
2026-05-05 22:06 16.27456 121.41841 20992 ft 393 kts 25°
2026-05-05 22:06 16.29920 121.43076 20987 ft 393 kts 25°
2026-05-05 22:06 16.32385 121.44311 20978 ft 393 kts 25°
2026-05-05 22:07 16.34851 121.45543 20979 ft 393 kts 25°
2026-05-05 22:07 16.37315 121.46773 20974 ft 393 kts 25°
2026-05-05 22:07 16.39779 121.48001 20971 ft 393 kts 25°
2026-05-05 22:07 16.42246 121.49234 20969 ft 393 kts 25°
2026-05-05 22:08 16.44714 121.50471 20962 ft 393 kts 25°
2026-05-05 22:08 16.47176 121.51706 20960 ft 393 kts 25°
2026-05-05 22:08 16.49608 121.52926 20953 ft 393 kts 25°
2026-05-05 22:08 16.52070 121.54162 20954 ft 393 kts 25°
2026-05-05 22:09 16.54533 121.55402 20950 ft 393 kts 25°
2026-05-05 22:09 16.57001 121.56642 20948 ft 393 kts 25°
2026-05-05 22:09 16.59468 121.57877 20949 ft 393 kts 25°
2026-05-05 22:09 16.61939 121.59113 20942 ft 393 kts 25°
2026-05-05 22:10 16.64405 121.60347 20941 ft 393 kts 25°
2026-05-05 22:10 16.66874 121.61588 20937 ft 393 kts 25°
2026-05-05 22:10 16.69310 121.62813 20567 ft 386 kts 25°
2026-05-05 22:10 16.71728 121.64025 19924 ft 385 kts 25°
2026-05-05 22:11 16.74132 121.65232 19321 ft 383 kts 25°
2026-05-05 22:11 16.75717 121.66029 18923 ft 381 kts 25°
2026-05-05 22:11 16.78104 121.67229 18323 ft 380 kts 25°
2026-05-05 22:11 16.80477 121.68422 17678 ft 377 kts 25°
2026-05-05 22:12 16.82833 121.69606 17098 ft 373 kts 25°
2026-05-05 22:12 16.85164 121.70778 16531 ft 369 kts 25°
2026-05-05 22:12 16.87467 121.71938 15964 ft 366 kts 25°
2026-05-05 22:12 16.89755 121.73092 15410 ft 363 kts 26°
2026-05-05 22:13 16.92019 121.74236 14867 ft 360 kts 26°
2026-05-05 22:13 16.94271 121.75353 14322 ft 357 kts 22°
2026-05-05 22:13 16.96666 121.75978 13799 ft 354 kts
2026-05-05 22:13 16.99081 121.76050 13233 ft 351 kts 358°
2026-05-05 22:14 17.01499 121.75859 12813 ft 343 kts 354°
2026-05-05 22:14 17.03815 121.75614 12688 ft 327 kts 354°
2026-05-05 22:14 17.06032 121.75421 12566 ft 313 kts 356°
2026-05-05 22:14 17.08131 121.75305 12446 ft 290 kts 358°
2026-05-05 22:15 17.10086 121.75251 12142 ft 275 kts 359°
2026-05-05 22:15 17.11983 121.75232 11624 ft 270 kts
2026-05-05 22:15 17.13817 121.75230 11403 ft 254 kts
2026-05-05 22:15 17.15548 121.75231 11051 ft 246 kts
2026-05-05 22:16 17.17252 121.75231 10578 ft 243 kts
2026-05-05 22:16 17.18945 121.75229 10104 ft 242 kts
2026-05-05 22:16 17.20628 121.75227 9517 ft 244 kts
2026-05-05 22:16 17.22337 121.75224 8888 ft 245 kts
2026-05-05 22:17 17.24037 121.75218 8450 ft 245 kts
2026-05-05 22:17 17.25725 121.75213 8086 ft 246 kts
2026-05-05 22:17 17.27433 121.75206 7724 ft 245 kts
2026-05-05 22:17 17.29141 121.75201 7370 ft 245 kts
2026-05-05 22:18 17.30848 121.75195 7015 ft 245 kts
2026-05-05 22:18 17.32554 121.75191 6662 ft 245 kts
2026-05-05 22:18 17.34246 121.75187 6312 ft 244 kts
2026-05-05 22:18 17.35946 121.75184 5940 ft 244 kts
2026-05-05 22:19 17.37641 121.75179 5587 ft 243 kts
2026-05-05 22:19 17.39326 121.75175 5226 ft 241 kts
2026-05-05 22:19 17.40999 121.75170 4886 ft 240 kts
2026-05-05 22:19 17.42665 121.75166 4568 ft 236 kts
2026-05-05 22:20 17.44246 121.75163 4383 ft 220 kts 360°
2026-05-05 22:20 17.45765 121.75160 3944 ft 216 kts
2026-05-05 22:20 17.47229 121.75155 3603 ft 209 kts
2026-05-05 22:20 17.48667 121.75148 3296 ft 202 kts
2026-05-05 22:21 17.50059 121.75143 3004 ft 197 kts
2026-05-05 22:21 17.51427 121.75134 2711 ft 195 kts 358°
2026-05-05 22:21 17.52719 121.75019 2437 ft 180 kts 353°
2026-05-05 22:21 17.53905 121.74855 2206 ft 162 kts 352°
2026-05-05 22:22 17.54955 121.74698 1991 ft 145 kts 352°
2026-05-05 22:22 17.55914 121.74555 1784 ft 134 kts 352°
2026-05-05 22:22 17.56818 121.74421 1591 ft 129 kts 352°
2026-05-05 22:22 17.57693 121.74292 1405 ft 128 kts 352°
2026-05-05 22:23 17.58572 121.74162 1215 ft 127 kts 353°
2026-05-05 22:23 17.59451 121.74032 1025 ft 127 kts 352°
2026-05-05 22:23 17.60320 121.73904 831 ft 125 kts 352°
2026-05-05 22:23 17.61185 121.73778 650 ft 125 kts 352°
2026-05-05 22:24 17.62047 121.73652 466 ft 125 kts 353°
2026-05-05 22:24 17.62905 121.73527 282 ft 124 kts 353°
2026-05-05 22:24 17.63758 121.73402 94 ft 122 kts 353°
2026-05-05 22:24 17.64451 121.73303 77 ft 66 kts 353°
2026-05-05 22:25 17.64639 121.73277 80 ft 7 kts 358°
2026-05-05 22:25 17.64686 121.73280 79 ft 6 kts 343°
2026-05-05 22:25 17.64682 121.73260 79 ft 1 kts 206°
2026-05-05 22:25 17.64628 121.73270 79 ft 10 kts 168°
2026-05-05 22:26 17.64559 121.73284 79 ft 10 kts 171°
2026-05-05 22:26 17.64487 121.73295 78 ft 11 kts 172°
2026-05-05 22:26 17.64414 121.73307 78 ft 10 kts 164°
2026-05-05 22:26 17.64369 121.73358 82 ft 10 kts 124°